This demonstration page uses our WeatherBlox Daily Observations layout. Learn more.

Left ArrowRight Arrow

41.86663, -103.66717

Hourly Observations for September 7, 2015

Temp ( °F °C ) Dew Point ( °F °C ) Humidity (%) Winds ( mph kmh ) Pressure ( in mb ) Visibility ( mi km ) Precip ( " mm )
12:53 am 00:53 Clear 59 15 54 12.2 83 83 N 3 6 29.95 1014 10 16.0934 0 0
1:53 am 01:53 Clear 60 15.6 53 11.7 78 78 ESE 5 7 29.92 1013 10 16.0934 0 0
2:53 am 02:53 Clear 57 13.9 54 12.2 90 90 N 5 7 29.93 1014 10 16.0934 0 0
3:53 am 03:53 Clear 57 13.9 52 11.1 83 83 E 3 6 29.94 1014 10 16.0934 0 0
4:53 am 04:53 Clear 59 15 52 11.1 78 78 ESE 12 19 29.92 1013 10 16.0934 0 0
5:53 am 05:53 Clear 59 15 53 11.7 81 81 E 13 20 29.92 1013 10 16.0934 0 0
6:53 am 06:53 Sunny 56 13.3 52 11.1 87 87 E 6 9 29.97 1015 10 16.0934 0 0
7:53 am 07:53 Sunny 59 15 54 12.2 83 83 ESE 8 13 29.97 1015 10 16.0934 0 0
8:53 am 08:53 Sunny 64 17.8 56 13.3 75 75 ESE 12 19 29.94 1014 10 16.0934 0 0
9:53 am 09:53 Sunny 71 21.7 56 13.3 59 59 ESE 8 13 29.94 1014 10 16.0934 0 0
10:53 am 10:53 Sunny 73 22.8 51 10.6 46 46 Calm 29.94 1014 10 16.0934 0 0
11:53 am 11:53 Sunny 80 26.7 51 10.6 37 37 Calm 29.91 1013 10 16.0934 0 0
12:53 pm 12:53 Sunny 82 27.8 40 4.4 22 22 VRB 6 9 29.88 1012 10 16.0934 0 0
1:53 pm 13:53 Sunny 84 28.9 42 5.6 23 23 VRB 3 6 29.85 1011 10 16.0934 0 0
2:53 pm 14:53 Sunny 84 28.9 43 6.1 24 24 VRB 6 9 29.84 1011 10 16.0934 0 0
3:53 pm 15:53 Sunny 82 27.8 38 3.3 21 21 WSW 13 20 29.85 1011 10 16.0934 0 0.0254
4:53 pm 16:53 Sunny 80 26.7 45 7.2 29 29 SSW 9 15 29.84 1011 10 16.0934 0 0
5:53 pm 17:53 Sunny 79 26.1 47 8.3 32 32 S 12 19 29.85 1011 10 16.0934 0 0
6:53 pm 18:53 Sunny 75 23.9 48 8.9 39 39 SE 5 7 29.86 1011 10 16.0934 0 0
7:53 pm 19:53 Clear 65 18.3 52 11.1 63 63 E 6 9 29.89 1012 10 16.0934 0 0
8:53 pm 20:53 Clear 62 16.7 52 11.1 70 70 ESE 6 9 29.91 1013 10 16.0934 0 0
9:53 pm 21:53 Clear 60 15.6 51 10.6 72 72 NE 14 22 29.92 1013 10 16.0934 0 0
10:53 pm 22:53 Clear 63 17.2 49 9.4 60 60 E 12 19 29.92 1013 10 16.0934 0 0
11:53 pm 23:53 Clear 62 16.7 47 8.3 58 58 ENE 12 19 29.91 1013 10 16.0934 0 0

Powered by AerisWeather